{"data":{"norad_id":35951,"epoch":"2026-05-25T05:29:45.703680Z","epoch_age_seconds":51671,"freshness":"FRESH","line1":"1 35951U 09057A   26145.22900120  .00000242  00000+0  14857-3 0  9993","line2":"2 35951  98.9030 126.0498 0010345 321.7453  38.2985 14.14882545856345","mean_motion":14.14882545,"eccentricity":0.0010345,"inclination_deg":98.903,"raan_deg":126.0498,"arg_perigee_deg":321.7453,"mean_anomaly_deg":38.2985,"bstar":0.00014857,"rev_number":85634,"period_min":101.77523251586,"perigee_km":835.24179065584,"apogee_km":850.18172673758,"semimajor_km":7220.8487586967,"source":"CELESTRAK","updated_at":"2026-05-25T13:38:11.911671Z"}}